Regional Weather Roundup
Issued by NWS Goodland, KS

Home | Current Version | Previous Version | Text Only | Print | Product List | Glossary Off
Versions: 1 2 3 4 5 6 7 8 9 10 11 12 13 14 15 16 17 18 19 20 21 22 23 24 25 26 27 28 29 30 31 32 33 34 35 36 37 38 39 40 41 42 43 44 45 46 47 48 49 50

526
ASUS43 KGLD 270659
RWRGLD

GOODLAND FORECAST AREA HOURLY WEATHER ROUNDUP
NATIONAL WEATHER SERVICE GOODLAND KS
100 AM MDT TUE SEP 27 2016

...OFFICIAL OBSERVATIONS...

CITY           SKY/WX    TMP DP  RH WIND       PRES   REMARKS
GOODLAND KS    CLEAR     51  40  65 SW9       30.21F
HILL CITY KS   CLEAR     50  44  80 W6        30.14F
IMPERIAL NEB   CLEAR     52  40  63 NW5       30.20F
MCCOOK NEB     CLEAR     49  42  77 W9        30.16S
AKRON CO       CLEAR     52  36  54 S7        30.27F
BURLINGTON CO  CLEAR     48  39  71 W8        30.26F
LIMON CO       CLEAR     41  28  60 CALM      30.32F
$$

...UNOFFICIAL OBSERVATIONS...

CITY           SKY/WX    TMP DP  RH WIND       PRES   REMARKS
COLBY KS       CLEAR     48  43  81 W8        30.20S
LENORA KS        N/A     56  32  40 MISG        N/A
NORTON KS      CLEAR     48  39  71 CALM      30.13
SHARON SPRINGS   N/A     51  39  64 W7          N/A
KIT CARSON CO    N/A     50  37  61 CALM        N/A
$$




USA.gov is the U.S. government's official web portal to all federal, state and local government web resources and services.